contact:dominique.lefevre@mio.osupytheas.fr, maurice.libes@osupytheas.fr, didier.mallarino@osupytheas.fr
Project:EMSO http://www.emso-fr.org/EMSO-France
Depth: 2436.0 m
Title:EMSO Ligure Ouest : Data MII capteur AQUADOPP
Date,Latitude,Longitude,X_East,Y_North,Z_Up,Amplitude_X,Amplitude_Y,Amplitude_Z,Batterie,SoundSpeed,Heading,Pitch,Roll,Pressure,TIS,Speed,Direction
, degrees North, degrees East, m.s-1, m.s-1,m.s-1, 1, 1, 1, Volt, m.s-1, degree, degree, degree, dbar, degree_C, m.s-1, degree
2023-10-28T00:04:03,42.805,6.029,-0.035,0.06,-0.017,103.0,104.0,102.0,13.4,1505.2,356.4,-0.8,1.8,2471.504,13.28,0.069,329.7
2023-10-28T00:07:03,42.805,6.029,-0.045,0.055,-0.022,102.0,107.0,102.0,13.3,1505.2,350.8,-0.8,1.8,2471.52,13.29,0.071,320.7
2023-10-28T00:10:03,42.805,6.029,-0.039,0.057,-0.016,102.0,105.0,101.0,13.4,1505.2,352.4,-0.8,1.8,2471.519,13.29,0.069,325.6
2023-10-28T00:13:03,42.805,6.029,-0.04,0.046,-0.025,103.0,104.0,102.0,13.3,1505.2,341.2,-0.7,1.8,2471.507,13.29,0.06,319.0
2023-10-28T00:16:03,42.805,6.029,-0.048,0.052,-0.004,103.0,102.0,102.0,13.4,1505.2,348.2,-0.8,1.8,2471.49,13.29,0.07,317.3
2023-10-28T00:19:03,42.805,6.029,-0.049,0.038,-0.027,104.0,101.0,102.0,13.4,1505.2,352.4,-0.7,1.8,2471.412,13.29,0.062,307.8
2023-10-28T00:22:03,42.805,6.029,-0.047,0.079,0.021,103.0,102.0,101.0,13.4,1505.2,350.5,-0.7,1.9,2471.478,13.29,0.091,329.2
2023-10-28T00:25:03,42.805,6.029,-0.059,0.08,0.022,103.0,102.0,102.0,13.3,1505.2,351.1,-0.8,1.8,2471.497,13.29,0.099,323.6
2023-10-28T00:28:03,42.805,6.029,-0.043,0.06,-0.016,103.0,103.0,102.0,13.4,1505.2,344.4,-0.7,1.8,2471.468,13.29,0.073,324.4
2023-10-28T00:31:03,42.805,6.029,-0.031,0.046,-0.018,102.0,104.0,101.0,13.4,1505.2,351.1,-0.7,1.9,2471.471,13.29,0.055,326.0
2023-10-28T00:34:03,42.805,6.029,-0.06,0.049,-0.013,103.0,104.0,101.0,13.4,1505.2,349.0,-0.8,1.8,2471.493,13.29,0.077,309.2
2023-10-28T00:37:03,42.805,6.029,-0.03,0.033,-0.013,104.0,103.0,102.0,13.4,1505.2,336.4,-0.8,1.8,2471.477,13.29,0.044,317.7
2023-10-28T00:40:03,42.805,6.029,-0.056,0.046,-0.003,102.0,104.0,102.0,13.4,1505.2,345.2,-0.7,1.8,2471.47,13.29,0.072,309.4
2023-10-28T00:43:03,42.805,6.029,-0.036,0.064,-0.005,103.0,104.0,101.0,13.4,1505.2,349.4,-0.7,1.8,2471.455,13.29,0.073,330.6
2023-10-28T00:46:03,42.805,6.029,-0.045,0.053,-0.04,104.0,103.0,101.0,13.4,1505.2,353.2,-0.7,1.8,2471.442,13.29,0.069,319.7
2023-10-28T00:49:03,42.805,6.029,-0.03,0.041,-0.026,103.0,103.0,101.0,13.3,1505.2,353.3,-0.8,1.8,2471.462,13.29,0.05,323.8
2023-10-28T00:52:03,42.805,6.029,-0.029,0.039,-0.011,104.0,102.0,101.0,13.4,1505.2,350.9,-0.8,1.8,2471.448,13.29,0.048,323.4
2023-10-28T00:55:03,42.805,6.029,-0.045,0.032,-0.031,103.0,103.0,101.0,13.4,1505.2,348.2,-0.7,1.8,2471.447,13.29,0.055,305.4
2023-10-28T00:58:03,42.805,6.029,-0.064,0.043,-0.027,103.0,103.0,102.0,13.4,1505.2,340.3,-0.8,1.8,2471.452,13.29,0.077,303.9
2023-10-28T01:04:03,42.805,6.029,-0.066,0.051,-0.016,104.0,104.0,103.0,13.3,1505.2,340.9,-0.8,1.8,2471.484,13.28,0.083,307.7
2023-10-28T01:07:03,42.805,6.029,-0.033,0.053,-0.009,103.0,102.0,102.0,13.4,1505.2,340.6,-0.7,1.8,2471.518,13.29,0.062,328.1
2023-10-28T01:10:03,42.805,6.029,-0.053,0.041,0.0,102.0,104.0,101.0,13.4,1505.2,353.3,-0.8,1.8,2471.467,13.29,0.067,307.7
2023-10-28T01:13:03,42.805,6.029,-0.052,0.059,0.014,103.0,106.0,101.0,13.3,1505.2,349.6,-0.8,1.8,2471.484,13.29,0.078,318.6
2023-10-28T01:16:03,42.805,6.029,-0.063,0.075,-0.01,103.0,103.0,102.0,13.4,1505.2,343.5,-0.8,1.8,2471.483,13.29,0.097,320.0
2023-10-28T01:19:03,42.805,6.029,-0.07,0.035,-0.023,103.0,103.0,102.0,13.3,1505.2,334.6,-0.8,1.8,2471.431,13.29,0.078,296.6
2023-10-28T01:22:03,42.805,6.029,-0.054,0.018,-0.018,102.0,102.0,102.0,13.3,1505.2,334.5,-0.8,1.8,2471.451,13.29,0.056,288.4
2023-10-28T01:25:03,42.805,6.029,-0.003,0.052,0.011,103.0,104.0,101.0,13.3,1505.2,0.0,-0.8,1.8,2471.501,13.29,0.052,356.7
2023-10-28T01:28:03,42.805,6.029,-0.044,0.044,-0.003,102.0,104.0,102.0,13.3,1505.2,348.4,-0.8,1.8,2471.478,13.29,0.062,315.0
2023-10-28T01:31:03,42.805,6.029,-0.055,0.041,-0.014,103.0,104.0,101.0,13.3,1505.2,341.5,-0.8,1.8,2471.51,13.29,0.068,306.7
2023-10-28T01:34:03,42.805,6.029,-0.049,0.061,-0.012,103.0,105.0,102.0,13.3,1505.2,340.2,-0.8,1.8,2471.477,13.29,0.078,321.2
2023-10-28T01:37:03,42.805,6.029,-0.058,0.034,-0.007,103.0,102.0,101.0,13.4,1505.2,332.3,-0.8,1.8,2471.476,13.29,0.067,300.4
2023-10-28T01:40:03,42.805,6.029,-0.056,0.032,-0.006,102.0,102.0,102.0,13.4,1505.2,332.2,-0.8,1.8,2471.433,13.29,0.064,299.7
2023-10-28T01:43:03,42.805,6.029,-0.041,0.032,0.002,102.0,105.0,102.0,13.3,1505.2,340.5,-0.8,1.8,2471.45,13.29,0.052,308.0
2023-10-28T01:46:03,42.805,6.029,-0.018,0.059,0.014,102.0,104.0,102.0,13.4,1505.2,354.9,-0.8,1.8,2471.458,13.29,0.061,343.0
2023-10-28T01:49:03,42.805,6.029,-0.054,0.036,-0.042,102.0,103.0,102.0,13.3,1505.2,343.2,-0.8,1.8,2471.458,13.29,0.064,303.7
2023-10-28T01:52:03,42.805,6.029,-0.043,0.051,0.003,103.0,102.0,102.0,13.4,1505.2,345.9,-0.8,1.8,2471.474,13.29,0.066,319.9
2023-10-28T01:55:03,42.805,6.029,-0.04,0.054,0.012,104.0,103.0,101.0,13.3,1505.2,334.6,-0.8,1.8,2471.471,13.29,0.067,323.5
2023-10-28T01:58:03,42.805,6.029,-0.048,0.058,0.004,102.0,106.0,101.0,13.4,1505.2,345.5,-0.8,1.8,2471.457,13.29,0.075,320.4
2023-10-28T02:04:03,42.805,6.029,-0.031,0.034,-0.013,104.0,103.0,102.0,13.3,1505.2,346.6,-0.7,1.8,2471.523,13.29,0.046,317.6
2023-10-28T02:07:03,42.805,6.029,-0.038,0.044,0.008,104.0,103.0,102.0,13.4,1505.2,333.4,-0.8,1.8,2471.497,13.29,0.058,319.2
2023-10-28T02:10:03,42.805,6.029,-0.08,0.026,0.002,103.0,103.0,102.0,13.3,1505.2,333.0,-0.8,1.8,2471.501,13.29,0.084,288.0
2023-10-28T02:13:03,42.805,6.029,-0.009,0.041,-0.023,102.0,103.0,102.0,13.4,1505.2,0.0,-0.7,1.8,2471.498,13.29,0.041,347.6
2023-10-28T02:16:03,42.805,6.029,-0.035,0.035,0.0,103.0,103.0,102.0,13.4,1505.2,343.3,-0.8,1.8,2471.472,13.29,0.049,315.0
2023-10-28T02:19:03,42.805,6.029,-0.045,0.053,0.0,104.0,101.0,102.0,13.4,1505.2,349.6,-0.7,1.8,2471.511,13.29,0.069,319.7
2023-10-28T02:22:03,42.805,6.029,-0.028,0.036,-0.021,104.0,102.0,103.0,13.4,1505.2,337.4,-0.8,1.8,2471.485,13.29,0.045,322.1
2023-10-28T02:25:03,42.805,6.029,-0.047,0.044,0.024,104.0,103.0,102.0,13.4,1505.2,346.3,-0.7,1.8,2471.476,13.29,0.064,313.1
2023-10-28T02:28:03,42.805,6.029,-0.046,0.047,0.0,104.0,103.0,102.0,13.4,1505.2,340.0,-0.8,1.8,2471.464,13.29,0.065,315.6
2023-10-28T02:31:03,42.805,6.029,-0.05,0.058,-0.033,103.0,104.0,103.0,13.4,1505.2,350.9,-0.7,1.8,2471.518,13.29,0.076,319.2
2023-10-28T02:34:03,42.805,6.029,-0.044,0.051,-0.009,103.0,103.0,101.0,13.4,1505.2,342.5,-0.8,1.8,2471.461,13.29,0.067,319.2
2023-10-28T02:37:03,42.805,6.029,-0.049,0.035,-0.02,104.0,102.0,102.0,13.4,1505.2,333.8,-0.8,1.8,2471.494,13.29,0.06,305.5
2023-10-28T02:40:03,42.805,6.029,-0.05,0.033,-0.012,104.0,103.0,101.0,13.4,1505.2,335.2,-0.8,1.8,2471.478,13.29,0.059,303.4
2023-10-28T02:43:03,42.805,6.029,-0.046,0.056,-0.004,104.0,103.0,101.0,13.4,1505.2,359.0,-0.8,1.8,2471.489,13.29,0.072,320.6
2023-10-28T02:46:03,42.805,6.029,-0.03,0.058,-0.03,105.0,102.0,102.0,13.4,1505.2,359.1,-0.8,1.8,2471.516,13.29,0.065,332.6
2023-10-28T02:49:03,42.805,6.029,-0.047,0.049,-0.005,103.0,104.0,102.0,13.4,1505.2,341.5,-0.8,1.8,2471.481,13.29,0.067,316.2
2023-10-28T02:52:03,42.805,6.029,-0.065,0.019,-0.023,104.0,102.0,102.0,13.3,1505.2,340.4,-0.7,1.8,2471.451,13.29,0.067,286.3
2023-10-28T02:55:03,42.805,6.029,-0.039,0.068,-0.004,104.0,105.0,101.0,13.4,1505.2,353.3,-0.8,1.8,2471.497,13.29,0.078,330.2
2023-10-28T02:58:03,42.805,6.029,-0.058,0.027,0.007,104.0,103.0,101.0,13.4,1505.2,335.2,-0.8,1.8,2471.464,13.29,0.063,295.0
2023-10-28T03:04:03,42.805,6.029,-0.034,0.043,-0.007,103.0,104.0,103.0,13.4,1505.2,346.1,-0.8,1.8,2471.546,13.28,0.054,321.7
2023-10-28T03:07:03,42.805,6.029,-0.027,0.036,0.0,104.0,104.0,102.0,13.4,1505.2,351.1,-0.8,1.8,2471.537,13.29,0.045,323.1
2023-10-28T03:10:03,42.805,6.029,-0.022,0.021,-0.022,103.0,103.0,102.0,13.3,1505.2,338.3,-0.8,1.8,2471.555,13.29,0.03,313.7
2023-10-28T03:13:03,42.805,6.029,-0.064,0.059,-0.018,103.0,104.0,102.0,13.3,1505.2,342.3,-0.8,1.8,2471.543,13.29,0.087,312.7
2023-10-28T03:16:03,42.805,6.029,-0.02,0.06,-0.02,103.0,104.0,103.0,13.4,1505.2,355.9,-0.8,1.8,2471.544,13.29,0.063,341.6
2023-10-28T03:19:03,42.805,6.029,-0.045,0.041,-0.006,104.0,105.0,101.0,13.4,1505.2,342.5,-0.8,1.8,2471.547,13.29,0.06,312.3
2023-10-28T03:22:03,42.805,6.029,-0.04,0.055,0.0,104.0,104.0,101.0,13.4,1505.2,351.1,-0.8,1.8,2471.56,13.29,0.068,324.0
2023-10-28T03:25:03,42.805,6.029,-0.045,0.055,0.013,103.0,103.0,103.0,13.4,1505.2,344.4,-0.7,1.8,2471.519,13.29,0.071,320.7
2023-10-28T03:28:03,42.805,6.029,-0.016,0.044,0.032,104.0,102.0,101.0,13.4,1505.2,344.2,-0.8,1.8,2471.55,13.29,0.046,340.0
2023-10-28T03:31:03,42.805,6.029,-0.033,0.045,-0.001,104.0,105.0,102.0,13.4,1505.2,333.4,-0.8,1.8,2471.53,13.29,0.055,323.7
2023-10-28T03:34:03,42.805,6.029,-0.017,0.028,-0.008,104.0,105.0,102.0,13.4,1505.2,348.3,-0.8,1.8,2471.514,13.29,0.032,328.7
2023-10-28T03:37:03,42.805,6.029,-0.039,0.036,-0.002,107.0,104.0,102.0,13.4,1505.2,340.7,-0.8,1.8,2471.538,13.29,0.053,312.7
2023-10-28T03:40:03,42.805,6.029,-0.053,0.074,-0.029,104.0,103.0,102.0,13.4,1505.2,353.3,-0.8,1.8,2471.565,13.29,0.091,324.4
2023-10-28T03:43:03,42.805,6.029,-0.062,0.029,0.003,104.0,105.0,102.0,13.4,1505.2,331.5,-0.8,1.8,2471.584,13.29,0.068,295.1
2023-10-28T03:46:03,42.805,6.029,-0.039,0.043,-0.015,105.0,104.0,102.0,13.4,1505.2,343.3,-0.8,1.8,2471.582,13.29,0.058,317.8
2023-10-28T03:49:03,42.805,6.029,-0.045,0.049,-0.013,104.0,103.0,102.0,13.4,1505.2,341.8,-0.8,1.8,2471.577,13.29,0.066,317.4
2023-10-28T03:52:03,42.805,6.029,-0.047,0.055,-0.025,103.0,103.0,102.0,13.4,1505.2,346.8,-0.8,1.8,2471.552,13.29,0.072,319.5
2023-10-28T03:55:03,42.805,6.029,-0.018,0.056,-0.002,104.0,103.0,102.0,13.4,1505.2,356.2,-0.8,1.8,2471.576,13.29,0.058,342.2
2023-10-28T03:58:03,42.805,6.029,-0.023,0.053,0.015,103.0,105.0,101.0,13.4,1505.2,354.0,-0.8,1.8,2471.566,13.29,0.057,336.5
2023-10-28T04:04:03,42.805,6.029,-0.028,0.062,0.002,103.0,105.0,101.0,13.4,1505.2,347.4,-0.8,1.8,2471.652,13.28,0.068,335.7
2023-10-28T04:07:03,42.805,6.029,-0.057,0.027,-0.024,104.0,102.0,103.0,13.4,1505.2,339.7,-0.7,1.8,2471.635,13.29,0.063,295.3
2023-10-28T04:10:03,42.805,6.029,-0.033,0.064,-0.016,103.0,103.0,102.0,13.3,1505.2,357.1,-0.7,1.8,2471.646,13.29,0.072,332.7
2023-10-28T04:13:03,42.805,6.029,-0.027,0.039,-0.037,104.0,103.0,102.0,13.3,1505.2,338.0,-0.8,1.8,2471.611,13.29,0.047,325.3
2023-10-28T04:16:03,42.805,6.029,-0.046,0.049,-0.009,104.0,105.0,102.0,13.4,1505.2,336.0,-0.8,1.8,2471.629,13.29,0.067,316.8
2023-10-28T04:19:03,42.805,6.029,-0.046,0.06,-0.005,104.0,104.0,101.0,13.4,1505.2,356.3,-0.8,1.8,2471.609,13.29,0.075,322.5
2023-10-28T04:22:03,42.805,6.029,-0.039,0.058,0.013,103.0,104.0,102.0,13.4,1505.2,341.2,-0.8,1.8,2471.623,13.29,0.069,326.1
2023-10-28T04:25:03,42.805,6.029,-0.022,0.063,-0.002,104.0,103.0,102.0,13.4,1505.2,352.1,-0.7,1.8,2471.6,13.29,0.066,340.8
2023-10-28T04:28:03,42.805,6.029,-0.058,0.071,0.019,103.0,102.0,103.0,13.4,1505.2,338.0,-0.8,1.8,2471.619,13.29,0.091,320.8
2023-10-28T04:31:03,42.805,6.029,-0.027,0.059,-0.051,103.0,104.0,102.0,13.4,1505.2,356.4,-0.8,1.8,2471.589,13.29,0.064,335.4
2023-10-28T04:34:03,42.805,6.029,-0.021,0.05,-0.014,104.0,104.0,101.0,13.4,1505.2,343.7,-0.8,1.8,2471.617,13.29,0.054,337.2
2023-10-28T04:37:03,42.805,6.029,-0.055,0.053,-0.022,104.0,103.0,102.0,13.4,1505.2,341.8,-0.7,1.8,2471.652,13.29,0.076,313.9
2023-10-28T04:40:03,42.805,6.029,-0.015,0.033,-0.017,104.0,105.0,102.0,13.4,1505.2,351.5,-0.8,1.8,2471.626,13.29,0.036,335.6
2023-10-28T04:43:03,42.805,6.029,-0.063,0.043,0.001,104.0,103.0,101.0,13.4,1505.2,344.0,-0.7,1.8,2471.622,13.29,0.076,304.3
2023-10-28T04:46:03,42.805,6.029,-0.053,0.022,-0.025,103.0,103.0,102.0,13.3,1505.2,331.5,-0.8,1.8,2471.635,13.29,0.057,292.5
2023-10-28T04:49:03,42.805,6.029,-0.033,0.039,0.007,104.0,104.0,101.0,13.4,1505.2,348.2,-0.8,1.8,2471.63,13.29,0.051,319.8
2023-10-28T04:52:03,42.805,6.029,-0.031,0.051,-0.011,104.0,104.0,102.0,13.4,1505.2,343.0,-0.8,1.8,2471.646,13.29,0.059,328.7
2023-10-28T04:55:03,42.805,6.029,-0.039,0.026,-0.009,103.0,103.0,101.0,13.4,1505.2,351.3,-0.8,1.8,2471.64,13.29,0.046,303.7
2023-10-28T04:58:03,42.805,6.029,-0.032,0.024,-0.017,103.0,105.0,102.0,13.3,1505.2,342.2,-0.8,1.8,2471.649,13.29,0.04,306.9
2023-10-28T05:04:03,42.805,6.029,-0.053,0.01,-0.02,104.0,102.0,102.0,13.3,1505.2,340.7,-0.7,1.8,2471.664,13.29,0.053,280.7
2023-10-28T05:07:03,42.805,6.029,-0.039,0.039,-0.002,103.0,103.0,102.0,13.4,1505.2,332.6,-0.8,1.8,2471.664,13.29,0.055,315.0
2023-10-28T05:10:03,42.805,6.029,-0.031,0.055,-0.028,103.0,102.0,103.0,13.4,1505.2,359.0,-0.8,1.8,2471.641,13.29,0.063,330.6
2023-10-28T05:13:03,42.805,6.029,-0.046,0.059,-0.001,103.0,103.0,102.0,13.4,1505.2,350.0,-0.8,1.8,2471.7,13.29,0.074,322.1
2023-10-28T05:16:03,42.805,6.029,-0.04,0.073,0.0,104.0,101.0,103.0,13.4,1505.2,350.0,-0.8,1.8,2471.634,13.29,0.083,331.3
2023-10-28T05:19:03,42.805,6.029,-0.053,0.04,0.0,103.0,103.0,101.0,13.3,1505.2,334.2,-0.8,1.8,2471.652,13.29,0.066,307.0
2023-10-28T05:22:03,42.805,6.029,-0.05,0.052,-0.004,105.0,103.0,101.0,13.3,1505.2,335.2,-0.8,1.8,2471.639,13.29,0.072,316.1
2023-10-28T05:25:03,42.805,6.029,-0.062,0.062,-0.015,104.0,103.0,102.0,13.4,1505.2,352.1,-0.7,1.8,2471.696,13.29,0.087,315.0
2023-10-28T05:28:03,42.805,6.029,-0.026,0.051,0.014,104.0,104.0,101.0,13.4,1505.2,353.7,-0.8,1.8,2471.702,13.29,0.057,333.0
2023-10-28T05:31:03,42.805,6.029,-0.009,0.028,-0.007,104.0,104.0,102.0,13.3,1505.2,359.0,-0.8,1.9,2471.682,13.29,0.029,342.2
2023-10-28T05:34:03,42.805,6.029,-0.028,0.042,0.001,104.0,103.0,102.0,13.3,1505.2,337.5,-0.8,1.8,2471.638,13.29,0.05,326.3
2023-10-28T05:37:03,42.805,6.029,-0.062,0.061,-0.023,103.0,103.0,102.0,13.4,1505.2,349.6,-0.8,1.8,2471.678,13.29,0.086,314.5
2023-10-28T05:40:03,42.805,6.029,-0.052,0.028,0.023,103.0,103.0,102.0,13.4,1505.2,335.9,-0.8,1.8,2471.649,13.29,0.059,298.3
2023-10-28T05:43:03,42.805,6.029,-0.016,0.05,0.0,104.0,104.0,102.0,13.4,1505.2,356.2,-0.8,1.8,2471.688,13.29,0.052,342.3
2023-10-28T05:46:03,42.805,6.029,-0.068,0.092,-0.004,102.0,103.0,102.0,13.4,1505.2,354.0,-0.8,1.8,2471.652,13.29,0.114,323.5
2023-10-28T05:49:03,42.805,6.029,-0.058,0.038,-0.028,103.0,102.0,103.0,13.4,1505.2,348.3,-0.7,1.8,2471.652,13.29,0.069,303.2
2023-10-28T05:52:03,42.805,6.029,-0.034,0.03,-0.025,104.0,103.0,102.0,13.4,1505.2,334.6,-0.8,1.8,2471.684,13.29,0.045,311.4
2023-10-28T05:55:03,42.805,6.029,-0.049,0.033,-0.036,103.0,102.0,102.0,13.3,1505.2,349.6,-0.8,1.8,2471.681,13.29,0.059,304.0
2023-10-28T05:58:03,42.805,6.029,-0.036,0.035,-0.031,103.0,103.0,102.0,13.4,1505.2,348.8,-0.8,1.8,2471.695,13.29,0.05,314.2
2023-10-28T06:04:03,42.805,6.029,-0.042,0.047,0.008,104.0,104.0,101.0,13.4,1505.2,336.3,-0.8,1.8,2471.732,13.28,0.063,318.2
2023-10-28T06:07:03,42.805,6.029,-0.034,0.063,0.013,103.0,103.0,102.0,13.4,1505.2,358.1,-0.8,1.8,2471.695,13.29,0.071,331.6
2023-10-28T06:10:03,42.805,6.029,-0.064,0.056,-0.049,104.0,103.0,101.0,13.4,1505.2,345.9,-0.8,1.8,2471.719,13.29,0.085,311.2
2023-10-28T06:13:03,42.805,6.029,-0.047,0.03,0.0,102.0,104.0,102.0,13.3,1505.2,334.1,-0.7,1.9,2471.708,13.29,0.055,302.6
2023-10-28T06:16:03,42.805,6.029,-0.055,0.081,-0.006,103.0,103.0,102.0,13.3,1505.2,358.1,-0.8,1.8,2471.675,13.29,0.097,325.8
2023-10-28T06:19:03,42.805,6.029,-0.029,0.042,-0.025,103.0,103.0,101.0,13.4,1505.2,347.9,-0.8,1.8,2471.735,13.29,0.051,325.4
2023-10-28T06:22:03,42.805,6.029,-0.036,0.061,-0.017,103.0,103.0,102.0,13.3,1505.2,352.2,-0.8,1.8,2471.692,13.29,0.07,329.4
2023-10-28T06:25:03,42.805,6.029,-0.034,0.035,-0.021,104.0,103.0,101.0,13.4,1505.2,339.0,-0.8,1.8,2471.672,13.29,0.048,315.8
2023-10-28T06:28:03,42.805,6.029,-0.043,0.029,-0.018,104.0,104.0,101.0,13.3,1505.2,339.7,-0.8,1.9,2471.682,13.29,0.051,304.0
2023-10-28T06:31:03,42.805,6.029,-0.015,0.063,-0.002,103.0,104.0,102.0,13.4,1505.2,358.0,-0.7,1.8,2471.674,13.29,0.064,346.6
2023-10-28T06:34:03,42.805,6.029,-0.019,0.047,-0.003,103.0,102.0,102.0,13.4,1505.2,346.7,-0.8,1.8,2471.676,13.29,0.05,338.0
2023-10-28T06:37:03,42.805,6.029,-0.026,0.042,-0.005,104.0,103.0,102.0,13.3,1505.2,353.5,-0.8,1.8,2471.711,13.29,0.049,328.2
2023-10-28T06:40:03,42.805,6.029,-0.038,0.057,-0.006,104.0,103.0,102.0,13.3,1505.2,352.5,-0.8,1.8,2471.697,13.29,0.068,326.3
2023-10-28T06:43:03,42.805,6.029,-0.043,0.039,-0.002,104.0,101.0,102.0,13.3,1505.2,352.5,-0.7,1.8,2471.684,13.29,0.058,312.2
2023-10-28T06:46:03,42.805,6.029,-0.054,0.06,-0.01,103.0,102.0,102.0,13.4,1505.2,351.3,-0.8,1.8,2471.689,13.29,0.08,318.0
2023-10-28T06:49:03,42.805,6.029,-0.037,0.013,-0.015,103.0,103.0,104.0,13.4,1505.2,337.3,-0.8,1.8,2471.709,13.29,0.039,289.4
2023-10-28T06:52:03,42.805,6.029,-0.065,0.054,-0.009,103.0,103.0,102.0,13.4,1505.2,339.1,-0.7,1.8,2471.672,13.29,0.084,309.7
2023-10-28T06:55:03,42.805,6.029,-0.059,0.026,-0.028,102.0,103.0,101.0,13.4,1505.2,332.6,-0.8,1.8,2471.698,13.29,0.064,293.8
2023-10-28T06:58:03,42.805,6.029,-0.033,0.048,0.016,103.0,104.0,102.0,13.4,1505.2,356.5,-0.8,1.8,2471.685,13.29,0.058,325.5
2023-10-28T07:04:03,42.805,6.029,-0.04,0.057,-0.035,104.0,102.0,101.0,13.4,1505.2,359.0,-0.7,1.9,2471.706,13.28,0.069,324.9
2023-10-28T07:07:03,42.805,6.029,-0.04,0.059,-0.015,103.0,103.0,101.0,13.4,1505.2,350.6,-0.8,1.8,2471.715,13.29,0.071,325.9
2023-10-28T07:10:03,42.805,6.029,-0.049,0.055,0.003,103.0,103.0,101.0,13.3,1505.2,336.6,-0.8,1.8,2471.73,13.29,0.073,318.3
2023-10-28T07:13:03,42.805,6.029,-0.057,0.052,-0.008,104.0,104.0,101.0,13.3,1505.2,334.9,-0.8,1.8,2471.727,13.29,0.077,312.4
2023-10-28T07:16:03,42.805,6.029,-0.031,0.057,-0.005,101.0,103.0,102.0,13.3,1505.2,353.8,-0.8,1.8,2471.71,13.29,0.064,331.5
2023-10-28T07:19:03,42.805,6.029,-0.036,0.039,-0.018,104.0,103.0,101.0,13.4,1505.2,342.6,-0.8,1.8,2471.688,13.29,0.053,317.3
2023-10-28T07:22:03,42.805,6.029,-0.052,0.056,-0.004,103.0,102.0,101.0,13.4,1505.2,341.8,-0.8,1.8,2471.71,13.29,0.076,317.1
2023-10-28T07:25:03,42.805,6.029,-0.058,0.05,0.011,103.0,102.0,101.0,13.4,1505.2,347.6,-0.7,1.8,2471.671,13.29,0.076,310.8
2023-10-28T07:28:03,42.805,6.029,-0.044,0.05,-0.021,103.0,103.0,102.0,13.3,1505.2,346.8,-0.8,1.8,2471.663,13.29,0.066,318.7
2023-10-28T07:31:03,42.805,6.029,-0.039,0.048,-0.025,103.0,103.0,101.0,13.3,1505.2,346.1,-0.8,1.8,2471.659,13.29,0.061,320.9
2023-10-28T07:34:03,42.805,6.029,-0.048,0.029,-0.022,103.0,103.0,101.0,13.4,1505.2,343.2,-0.7,1.8,2471.716,13.29,0.056,301.1
2023-10-28T07:37:03,42.805,6.029,-0.052,0.024,-0.011,103.0,102.0,101.0,13.4,1505.2,332.3,-0.8,1.8,2471.697,13.29,0.057,294.8
2023-10-28T07:40:03,42.805,6.029,-0.043,0.068,-0.027,103.0,103.0,102.0,13.3,1505.2,350.2,-0.8,1.8,2471.679,13.29,0.08,327.7
2023-10-28T07:43:03,42.805,6.029,-0.031,0.031,-0.005,103.0,103.0,101.0,13.4,1505.2,341.8,-0.8,1.8,2471.645,13.29,0.043,315.0
2023-10-28T07:46:03,42.805,6.029,-0.045,0.062,-0.01,105.0,102.0,103.0,13.4,1505.2,353.3,-0.8,1.8,2471.666,13.29,0.076,324.0
2023-10-28T07:49:03,42.805,6.029,-0.041,0.056,-0.013,103.0,102.0,102.0,13.4,1505.2,341.3,-0.8,1.8,2471.651,13.29,0.069,323.8
2023-10-28T07:52:03,42.805,6.029,-0.046,0.048,0.0,103.0,103.0,101.0,13.4,1505.2,335.9,-0.8,1.8,2471.654,13.29,0.066,316.2
2023-10-28T07:55:03,42.805,6.029,-0.042,0.028,-0.014,103.0,103.0,102.0,13.4,1505.2,345.9,-0.8,1.8,2471.694,13.29,0.05,303.7
2023-10-28T07:58:03,42.805,6.029,-0.05,0.029,0.016,103.0,104.0,102.0,13.4,1505.2,343.4,-0.7,1.8,2471.698,13.29,0.057,300.1
2023-10-28T08:04:03,42.805,6.029,-0.005,0.021,0.006,104.0,103.0,101.0,13.4,1505.2,350.9,-0.7,1.8,2471.717,13.28,0.021,346.6
2023-10-28T08:07:03,42.805,6.029,-0.037,0.035,-0.019,104.0,103.0,101.0,13.4,1505.2,358.0,-0.8,1.8,2471.665,13.29,0.05,313.4
2023-10-28T08:10:06,42.805,6.029,-0.057,0.04,-0.026,103.0,103.0,101.0,13.4,1505.2,340.9,-0.7,1.8,2471.712,13.29,0.069,305.1
2023-10-28T08:13:03,42.805,6.029,-0.054,0.04,-0.041,103.0,103.0,101.0,13.3,1505.2,340.1,-0.8,1.8,2471.684,13.29,0.067,306.5
2023-10-28T08:16:03,42.805,6.029,-0.03,0.039,-0.026,102.0,103.0,102.0,13.4,1505.2,351.4,-0.7,1.8,2471.676,13.29,0.049,322.4
2023-10-28T08:19:03,42.805,6.029,-0.024,0.038,-0.001,103.0,103.0,102.0,13.4,1505.2,349.8,-0.8,1.8,2471.671,13.29,0.044,327.7
2023-10-28T08:22:03,42.805,6.029,-0.042,0.044,0.006,103.0,103.0,102.0,13.4,1505.2,351.4,-0.8,1.8,2471.656,13.29,0.06,316.3
2023-10-28T08:25:03,42.805,6.029,-0.07,0.046,-0.005,103.0,104.0,101.0,13.4,1505.2,347.9,-0.8,1.8,2471.678,13.29,0.083,303.3
2023-10-28T08:28:03,42.805,6.029,-0.039,0.059,-0.003,103.0,103.0,101.0,13.3,1505.2,352.4,-0.8,1.8,2471.689,13.29,0.07,326.5
2023-10-28T08:31:03,42.805,6.029,-0.031,0.04,-0.015,103.0,103.0,101.0,13.4,1505.2,347.0,-0.8,1.8,2471.695,13.29,0.05,322.2
2023-10-28T08:34:03,42.805,6.029,-0.044,0.064,0.004,103.0,103.0,101.0,13.4,1505.2,352.0,-0.7,1.8,2471.659,13.29,0.077,325.5
2023-10-28T08:37:03,42.805,6.029,-0.054,0.056,0.036,104.0,102.0,103.0,13.4,1505.2,339.3,-0.7,1.8,2471.649,13.29,0.077,316.0
2023-10-28T08:40:03,42.805,6.029,-0.022,0.049,-0.002,103.0,103.0,102.0,13.4,1505.2,351.8,-0.8,1.8,2471.649,13.29,0.053,335.8
2023-10-28T08:43:03,42.805,6.029,-0.057,0.061,-0.012,103.0,103.0,101.0,13.3,1505.2,343.8,-0.8,1.8,2471.63,13.29,0.083,316.9
2023-10-28T08:46:03,42.805,6.029,-0.049,0.054,0.007,102.0,104.0,102.0,13.4,1505.2,340.3,-0.7,1.8,2471.626,13.29,0.072,317.8
2023-10-28T08:49:03,42.805,6.029,-0.03,0.046,-0.031,103.0,103.0,102.0,13.4,1505.2,352.8,-0.8,1.8,2471.608,13.29,0.054,326.9
2023-10-28T08:52:03,42.805,6.029,-0.05,0.043,-0.022,103.0,102.0,101.0,13.4,1505.2,339.5,-0.7,1.8,2471.629,13.29,0.065,310.7
2023-10-28T08:55:03,42.805,6.029,-0.034,0.025,-0.026,103.0,103.0,102.0,13.4,1505.2,353.9,-0.8,1.8,2471.644,13.29,0.042,306.3
2023-10-28T08:58:03,42.805,6.029,-0.032,0.067,-0.004,103.0,103.0,102.0,13.4,1505.2,356.3,-0.8,1.8,2471.591,13.29,0.074,334.5
2023-10-28T09:04:03,42.805,6.029,-0.028,0.051,0.007,102.0,102.0,101.0,13.4,1505.2,351.0,-0.8,1.8,2471.69,13.28,0.058,331.2
2023-10-28T09:07:03,42.805,6.029,-0.042,0.025,-0.013,104.0,102.0,101.0,13.4,1505.2,332.6,-0.8,1.8,2471.677,13.29,0.048,300.8
2023-10-28T09:10:03,42.805,6.029,-0.044,0.067,0.001,103.0,104.0,102.0,13.4,1505.2,348.6,-0.7,1.9,2471.637,13.29,0.08,326.7
2023-10-28T09:13:03,42.805,6.029,-0.04,0.045,0.011,104.0,103.0,102.0,13.4,1505.2,347.2,-0.8,1.8,2471.645,13.29,0.06,318.4
2023-10-28T09:16:03,42.805,6.029,-0.047,0.018,-0.038,102.0,104.0,102.0,13.4,1505.2,339.9,-0.8,1.8,2471.668,13.29,0.05,291.0
2023-10-28T09:19:03,42.805,6.029,-0.067,0.02,-0.05,104.0,102.0,102.0,13.3,1505.2,336.0,-0.8,1.8,2471.643,13.29,0.069,286.6
2023-10-28T09:22:03,42.805,6.029,-0.037,0.023,-0.02,103.0,103.0,102.0,13.4,1505.2,332.5,-0.8,1.8,2471.645,13.29,0.043,301.9
2023-10-28T09:25:03,42.805,6.029,-0.046,0.048,0.022,104.0,104.0,101.0,13.4,1505.2,336.8,-0.7,1.8,2471.625,13.29,0.066,316.2
2023-10-28T09:28:03,42.805,6.029,-0.04,0.031,-0.032,103.0,103.0,102.0,13.3,1505.2,343.1,-0.8,1.8,2471.633,13.29,0.05,307.8
2023-10-28T09:31:03,42.805,6.029,-0.046,0.036,-0.032,103.0,102.0,102.0,13.4,1505.2,335.2,-0.8,1.8,2471.629,13.29,0.058,308.0
2023-10-28T09:34:03,42.805,6.029,-0.061,0.02,-0.015,103.0,104.0,101.0,13.4,1505.2,332.1,-0.7,1.8,2471.642,13.29,0.064,288.1
2023-10-28T09:37:03,42.805,6.029,-0.075,0.05,0.022,103.0,103.0,103.0,13.3,1505.2,334.8,-0.7,1.8,2471.611,13.29,0.09,303.7
2023-10-28T09:40:03,42.805,6.029,-0.065,0.086,0.003,103.0,103.0,102.0,13.4,1505.2,341.0,-0.8,1.8,2471.585,13.29,0.107,322.9
2023-10-28T09:43:03,42.805,6.029,-0.063,0.043,-0.022,103.0,103.0,101.0,13.3,1505.2,335.7,-0.8,1.8,2471.592,13.29,0.076,304.3
2023-10-28T09:46:03,42.805,6.029,-0.064,0.024,-0.035,104.0,104.0,101.0,13.3,1505.2,334.5,-0.8,1.8,2471.621,13.29,0.068,290.6
2023-10-28T09:49:03,42.805,6.029,-0.03,0.048,0.014,103.0,104.0,102.0,13.4,1505.2,334.6,-0.8,1.9,2471.596,13.29,0.056,328.0
2023-10-28T09:52:03,42.805,6.029,-0.054,0.06,-0.025,102.0,103.0,101.0,13.4,1505.2,348.5,-0.8,1.8,2471.604,13.29,0.08,318.0
2023-10-28T09:55:03,42.805,6.029,-0.043,0.051,-0.004,100.0,105.0,102.0,13.3,1505.2,338.7,-0.7,1.8,2471.605,13.29,0.066,319.9